This demonstration page uses our WeatherBlox Daily Observations layout. Learn more.

36.17497, -115.13722

Hourly Observations for September 22, 2018

Temp ( °F °C ) Dew Point ( °F °C ) Humidity (%) Winds ( mph kmh ) Pressure ( in mb ) Visibility ( mi km ) Precip ( " mm )
12:53 am 00:53 Clear 79 26.1 35 1.7 20 20 NNW 10 17 29.94 1014 10 16.09344 0 0
1:53 am 01:53 Clear 76 24.4 40 4.4 27 27 NW 6 9 29.94 1014 10 16.09344 0 0
2:53 am 02:53 Clear 78 25.6 37 2.8 23 23 S 3 6 29.94 1014 10 16.09344 0 0
3:53 am 03:53 Clear 73 22.8 37 2.8 27 27 NE 3 6 29.94 1014 10 16.09344 0 0
4:53 am 04:53 Clear 72 22.2 37 2.8 28 28 Calm 29.94 1014 10 16.09344 0 0
5:53 am 05:53 Clear 72 22.2 38 3.3 29 29 Calm 29.94 1014 10 16.09344 0 0
6:53 am 06:53 Sunny 70 21.1 38 3.3 31 31 N 5 7 29.97 1015 10 16.09344 0 0
7:53 am 07:53 Sunny 76 24.4 35 1.7 23 23 WNW 5 7 29.97 1015 10 16.09344 0 0
8:53 am 08:53 Sunny 82 27.8 33 0.6 17 17 N 5 7 29.97 1015 10 16.09344 0 0
9:53 am 09:53 Sunny 86 30 34 1.1 15 15 E 5 7 29.97 1015 10 16.09344 0 0
10:53 am 10:53 Sunny 88 31.1 35 1.7 15 15 ESE 6 9 29.97 1015 10 16.09344 0 0
11:53 am 11:53 Sunny 92 33.3 36 2.2 14 14 SE 8 13 29.94 1014 10 16.09344 0 0
12:53 pm 12:53 Sunny 94 34.4 40 4.4 15 15 SE 9 15 29.91 1013 10 16.09344 0 0
1:53 pm 13:53 Sunny 96 35.6 40 4.4 14 14 S 14 22 29.88 1012 10 16.09344 0 0
2:53 pm 14:53 Sunny 98 36.7 37 2.8 12 12 S 16 26 29.85 1011 10 16.09344 0 0
3:53 pm 15:53 Sunny 97 36.1 37 2.8 12 12 WSW 6 9 29.83 1010 10 16.09344 0 0
4:53 pm 16:53 Sunny 98 36.7 38 3.3 12 12 SW 10 17 29.8 1009 10 16.09344 0 0
5:53 pm 17:53 Sunny 96 35.6 37 2.8 13 13 SW 12 19 29.8 1009 10 16.09344 0 0
6:53 pm 18:53 Clear 94 34.4 35 1.7 13 13 W 12 19 29.83 1010 10 16.09344 0 0
7:53 pm 19:53 Clear 92 33.3 35 1.7 13 13 W 9 15 29.83 1010 10 16.09344 0 0
8:53 pm 20:53 Clear 90 32.2 35 1.7 14 14 W 6 9 29.83 1010 10 16.09344 0 0
9:53 pm 21:53 Clear 88 31.1 37 2.8 16 16 WSW 6 9 29.83 1010 10 16.09344 0 0
10:53 pm 22:53 Clear 85 29.4 38 3.3 19 19 SW 6 9 29.83 1010 10 16.09344 0 0
11:53 pm 23:53 Clear 81 27.2 39 3.9 22 22 Calm 29.83 1010 10 16.09344 0 0

Powered by AerisWeather